Location: Gebenbach
(49.5378°N, 11.8735°E)
Time: 03:19:23
(UTC+00:00)

Cosmos 2058 - Pass Details

Date: 29 October 2020
Orbit: 562 x 584 km, 82.5° (Epoch: 27 November)

Event Time Altitude Azimuth Distance (km) Brightness Sun altitude
Rises 17:28:33 0° 350° (N) 2,768 6.5 -15.7°
Reaches altitude 10° 17:30:44 10° 352° (N) 1,866 5.6 -16.0°
Maximum altitude 17:34:51 81° 80° (E) 577 2.7 -16.7°
Drops below altitude 10° 17:38:57 10° 168° (SSE) 1,854 5.4 -17.3°
Sets 17:41:07 0° 169° (S) 2,748 6.3 -17.7°
